Weather History for KPVC - October, 2011

Change the Weather History Date:

Tuesday, October 4, 2011

  Actual Average Record
Temperature  
Mean Temperature 62 °F -  
Max Temperature 64 °F 61 °F 80 °F (2007)
Min Temperature 59 °F 49 °F 39 °F (2004)
Degree Days  
Heating Degree Days 4    
Growing Degree Days 12 (Base 50)    
Moisture  
Dew Point 55 °F    
Average Humidity 81    
Maximum Humidity 88    
Minimum Humidity 73    
Precipitation  
Precipitation 0.23 in - - ()
Sea Level Pressure  
Sea Level Pressure 29.92 in    
Wind  
Wind Speed 10 mph (NNE)    
Max Wind Speed 18 mph    
Max Gust Speed 26 mph    
Visibility 10 miles    
Events      
Averages and records for this station are not official NWS values.
T = Trace of Precipitation, MM = Missing Value Source: NWS Daily Summary

Daily Weather History Graph

Daily Weather History Graph

Search for Another Location

Airport or City:

Trip Planner

Search our weather history database for the weather conditions in past years. The results will help you decide how hot, cold, wet, or windy it might be!

Date:

Astronomy

Oct. 04, 2011 Rise Set
Actual Time 6:40 AM EDT 6:17 PM EDT
Civil Twilight 6:12 AM EDT 6:45 PM EDT
Nautical Twilight 5:40 AM EDT 7:18 PM EDT
Astronomical Twilight 5:07 AM EDT 7:50 PM EDT
Moon 2:23 PM EDT (10/4) No Moon Set
Length of Visible Light 12h 32m
Length of Day
11h 37m
First Quarter, 56% of the Moon is Illuminated
Oct 4
First Quarter
Oct 11
Full
Oct 19
Last Quarter
Oct 26
New
Nov 2
First Quarter

Hourly Weather History & Observations

Time (EDT) Temp. Dew Point Humidity Pressure Visibility Wind Dir Wind Speed Gust Speed Precip Events Conditions
12:15 AM 59.0 °F 53.6 °F 82% 30.02 in 10.0 mi East 11.5 mph - N/A   Overcast
12:35 AM 59.0 °F 55.4 °F 88% 30.01 in 10.0 mi East 9.2 mph - N/A   Overcast
12:55 AM 60.8 °F 55.4 °F 82% 30.01 in 10.0 mi East 10.4 mph - N/A   Overcast
1:15 AM 60.8 °F 55.4 °F 82% 30.00 in 10.0 mi East 10.4 mph - N/A   Overcast
1:35 AM 60.8 °F 55.4 °F 82% 29.99 in 10.0 mi ENE 12.7 mph - N/A   Mostly Cloudy
1:55 AM 60.8 °F 55.4 °F 82% 29.99 in 10.0 mi East 11.5 mph 16.1 mph N/A   Mostly Cloudy
2:15 AM 60.8 °F 55.4 °F 82% 29.99 in 10.0 mi East 10.4 mph - N/A   Overcast
2:35 AM 60.8 °F 55.4 °F 82% 29.98 in 10.0 mi East 10.4 mph - N/A   Overcast
2:55 AM 60.8 °F 55.4 °F 82% 29.97 in 10.0 mi East 11.5 mph - N/A   Partly Cloudy
3:35 AM 60.8 °F 55.4 °F 82% 29.96 in 10.0 mi East 11.5 mph - N/A   Overcast
4:15 AM 60.8 °F 57.2 °F 88% 29.95 in 10.0 mi East 11.5 mph - N/A   Mostly Cloudy
4:35 AM 60.8 °F 55.4 °F 82% 29.95 in 10.0 mi ESE 9.2 mph - N/A   Mostly Cloudy
4:55 AM 60.8 °F 55.4 °F 82% 29.95 in 10.0 mi ESE 10.4 mph - N/A   Overcast
5:15 AM 60.8 °F 55.4 °F 82% 29.95 in 5.0 mi ESE 9.2 mph - 0.03 in   Overcast
5:35 AM 59.0 °F 53.6 °F 82% 29.95 in 4.0 mi SE 6.9 mph - 0.22 in   Overcast
5:55 AM 59.0 °F 53.6 °F 82% 29.94 in 10.0 mi ESE 8.1 mph - 0.23 in   Overcast
6:15 AM 59.0 °F 53.6 °F 82% 29.94 in 10.0 mi ESE 5.8 mph - N/A   Mostly Cloudy
6:35 AM 59.0 °F 55.4 °F 88% 29.94 in 10.0 mi South 3.5 mph - N/A   Mostly Cloudy
6:55 AM 59.0 °F 55.4 °F 88% 29.95 in 10.0 mi SSE 4.6 mph - N/A   Overcast
7:15 AM 59.0 °F 55.4 °F 88% 29.94 in 10.0 mi South 3.5 mph - N/A   Overcast
7:35 AM 59.0 °F 53.6 °F 82% 29.95 in 10.0 mi SSE 3.5 mph - N/A   Overcast
8:15 AM 59.0 °F 55.4 °F 88% 29.95 in 10.0 mi Calm Calm - N/A   Overcast
8:35 AM 60.8 °F 55.4 °F 82% 29.95 in 10.0 mi Calm Calm - N/A   Overcast
8:55 AM 60.8 °F 55.4 °F 82% 29.94 in 10.0 mi SW 4.6 mph - N/A   Overcast
9:15 AM 62.6 °F 55.4 °F 77% 29.95 in 10.0 mi SW 8.1 mph - N/A   Scattered Clouds
9:35 AM 62.6 °F 55.4 °F 77% 29.94 in 10.0 mi WSW 8.1 mph - N/A   Clear
10:15 AM 62.6 °F 55.4 °F 77% 29.94 in 10.0 mi SW 9.2 mph - N/A   Scattered Clouds
10:35 AM 62.6 °F 55.4 °F 77% 29.94 in 10.0 mi SW 12.7 mph - N/A   Mostly Cloudy
11:15 AM 62.6 °F 55.4 °F 77% 29.92 in 10.0 mi West 8.1 mph - N/A   Scattered Clouds
11:35 AM 62.6 °F 55.4 °F 77% 29.92 in 10.0 mi WNW 6.9 mph - N/A   Mostly Cloudy
11:55 AM 62.6 °F 55.4 °F 77% 29.92 in 10.0 mi West 9.2 mph - N/A   Mostly Cloudy
12:35 PM 64.4 °F 55.4 °F 73% 29.91 in 10.0 mi WNW 9.2 mph - N/A   Scattered Clouds
12:55 PM 64.4 °F 55.4 °F 73% 29.90 in 10.0 mi NW 6.9 mph - N/A   Clear
1:15 PM 64.4 °F 55.4 °F 73% 29.90 in 10.0 mi WNW 8.1 mph - N/A   Clear
1:35 PM 64.4 °F 55.4 °F 73% 29.89 in 10.0 mi NW 8.1 mph - N/A   Mostly Cloudy
2:15 PM 64.4 °F 55.4 °F 73% 29.90 in 10.0 mi North 9.2 mph - N/A   Scattered Clouds
2:35 PM 62.6 °F 55.4 °F 77% 29.89 in 10.0 mi North 11.5 mph - N/A   Mostly Cloudy
3:15 PM 62.6 °F 55.4 °F 77% 29.88 in 10.0 mi North 11.5 mph - N/A   Clear
3:35 PM 62.6 °F 55.4 °F 77% 29.88 in 10.0 mi North 12.7 mph 16.1 mph N/A   Scattered Clouds
3:55 PM 60.8 °F 55.4 °F 82% 29.88 in 10.0 mi North 12.7 mph 18.4 mph N/A   Mostly Cloudy
4:15 PM 60.8 °F 55.4 °F 82% 29.87 in 10.0 mi North 13.8 mph 19.6 mph N/A   Mostly Cloudy
4:35 PM 60.8 °F 55.4 °F 82% 29.86 in 10.0 mi North 13.8 mph 18.4 mph N/A   Mostly Cloudy
4:55 PM 60.8 °F 55.4 °F 82% 29.86 in 10.0 mi North 13.8 mph 20.7 mph N/A   Mostly Cloudy
5:15 PM 60.8 °F 53.6 °F 77% 29.86 in 10.0 mi North 10.4 mph 20.7 mph N/A   Overcast
5:35 PM 60.8 °F 53.6 °F 77% 29.86 in 10.0 mi North 15.0 mph 20.7 mph N/A   Overcast
5:55 PM 60.8 °F 53.6 °F 77% 29.86 in 10.0 mi North 15.0 mph 20.7 mph N/A   Mostly Cloudy
6:15 PM 59.0 °F 53.6 °F 82% 29.86 in 10.0 mi North 12.7 mph 20.7 mph N/A   Overcast
6:35 PM 59.0 °F 53.6 °F 82% 29.86 in 10.0 mi North 15.0 mph 21.9 mph N/A   Overcast
6:55 PM 59.0 °F 53.6 °F 82% 29.86 in 10.0 mi North 16.1 mph 20.7 mph N/A   Overcast
7:15 PM 59.0 °F 51.8 °F 77% 29.85 in 10.0 mi North 13.8 mph 23.0 mph N/A   Overcast
7:35 PM 59.0 °F 53.6 °F 82% 29.85 in 10.0 mi North 15.0 mph 24.2 mph N/A   Overcast
7:55 PM 59.0 °F 53.6 °F 82% 29.85 in 10.0 mi North 15.0 mph 26.5 mph N/A   Overcast
8:15 PM 59.0 °F 53.6 °F 82% 29.84 in 10.0 mi North 18.4 mph 26.5 mph N/A   Overcast
8:35 PM 57.2 °F 53.6 °F 88% 29.84 in 9.0 mi North 20.7 mph 27.6 mph N/A   Overcast
8:55 PM 57.2 °F 53.6 °F 88% 29.84 in 7.0 mi North 19.6 mph 29.9 mph N/A   Overcast
9:15 PM 57.2 °F 53.6 °F 88% 29.84 in 3.0 mi North 18.4 mph 29.9 mph N/A   Overcast
9:35 PM 57.2 °F 53.6 °F 88% 29.83 in 3.0 mi North 24.2 mph 33.4 mph 0.01 in   Mostly Cloudy
9:55 PM 57.2 °F 53.6 °F 88% 29.83 in 3.0 mi North 21.9 mph 28.8 mph 0.03 in   Overcast
10:15 PM 57.2 °F 53.6 °F 88% 29.83 in 9.0 mi North 24.2 mph 32.2 mph N/A   Overcast
10:35 PM 57.2 °F 53.6 °F 88% 29.84 in 9.0 mi North 24.2 mph 32.2 mph N/A   Overcast
10:55 PM 57.2 °F 53.6 °F 88% 29.83 in 3.0 mi North 20.7 mph 28.8 mph N/A   Overcast
11:15 PM 57.2 °F 53.6 °F 88% 29.83 in 5.0 mi North 25.3 mph 34.5 mph N/A   Overcast
11:35 PM 57.2 °F 53.6 °F 88% 29.84 in 7.0 mi North 20.7 mph 31.1 mph N/A   Overcast
11:55 PM 57.2 °F 53.6 °F 88% 29.84 in 10.0 mi North 20.7 mph 31.1 mph N/A   Overcast